Location: Kerb�bon
(47.7970°N, 3.3487°W)
Time: 13:14:13
(UTC+00:00)

ERBS - Pass Details

Date: 12 May 2021
Orbit: 399 x 417 km, 57.0° (Epoch: 18 June)

Event Time Altitude Azimuth Distance (km) Brightness Sun altitude
Rises 22:21:18 0° 309° (NW) 2,354 7.2 -19.5°
Reaches altitude 10° 22:23:28 10° 317° (NW) 1,492 6.1 -19.7°
Maximum altitude 22:26:37 39° 28° (NNE) 645 3.4 -19.9°
Enters shadow 22:27:26 33° 64° (ENE) 732 3.4 -20.0°
